North Platte, NE

12:23 PM CDT on May 25, 2017 (GMT -0500)
North Platte Regional-Bird

Weather History for KLBF - August, 2014

Change the Weather History Date:

Sunday, August 17, 2014

  Actual Average Record
Temperature  
Mean Temperature 79 °F 72 °F  
Max Temperature 95 °F 86 °F 104 °F (1936)
Min Temperature 62 °F 58 °F 45 °F (1890)
Degree Days  
Heating Degree Days 0 0  
Month to date heating degree days 0 0  
Since 1 June heating degree days 56 56  
Since 1 July heating degree days 17 5  
Cooling Degree Days 14 8  
Month to date cooling degree days 162 147  
Year to date cooling degree days 577 606  
Since 1 June cooling degree days 528 578  
Growing Degree Days 28 (Base 50)    
Moisture  
Dew Point 64 °F    
Average Humidity 66    
Maximum Humidity 93    
Minimum Humidity 39    
Precipitation  
Precipitation 0.00 in 0.08 in 2.06 in (1999)
Month to date precipitation 2.51 1.50  
Year to date precipitation 15.69 15.43  
Snow  
Snow 0.00 in 0.00 in 0.00 in (2002)
Month to date snowfall 0.0 0.0  
Since 1 June snowfall T 0.0  
Since 1 July snowfall 0.0 0.0  
Snow Depth 0.00 in    
Sea Level Pressure  
Sea Level Pressure 29.90 in    
Wind  
Wind Speed 10 mph (ESE)    
Max Wind Speed 31 mph    
Max Gust Speed 40 mph    
Visibility 10 miles    
Events      
T = Trace of Precipitation, MM = Missing Value Source: NWS Daily Summary

Daily Weather History Graph

Daily Weather History Graph

Search for Another Location

Airport or City:

Trip Planner

Search our weather history database for the weather conditions in past years. The results will help you decide how hot, cold, wet, or windy it might be!

Date:

Astronomy

Aug. 17, 2014 Rise Set
Actual Time 6:54 AM CDT 8:38 PM CDT
Civil Twilight 6:24 AM CDT 9:07 PM CDT
Nautical Twilight 5:49 AM CDT 9:43 PM CDT
Astronomical Twilight 5:10 AM CDT 10:21 PM CDT
Moon 12:20 AM CDT (8/17) 2:46 PM CDT (8/17)
Length of Visible Light 14h 42m
Length of Day
13h 44m
Waning Gibbous, 48% of the Moon is Illuminated
Aug 17
Waning Gibbous
Aug 25
New
Sep 2
First Quarter
Sep 8
Full
Sep 15
Last Quarter

Hourly Weather History & Observations

Time (CDT) Temp. Heat Index Dew Point Humidity Pressure Visibility Wind Dir Wind Speed Gust Speed Precip Events Conditions
12:53 AM 64.9 °F - 60.1 °F 84% 29.93 in 10.0 mi East 6.9 mph - N/A   Clear
1:53 AM 64.4 °F - 60.8 °F 88% 30.01 in 10.0 mi East 6.9 mph - N/A   Clear
2:53 AM 63.0 °F - 61.0 °F 93% 29.94 in 10.0 mi East 6.9 mph - N/A   Clear
3:53 AM 64.0 °F - 62.1 °F 93% 29.94 in 10.0 mi Calm Calm - N/A   Clear
4:53 AM 63.0 °F - 61.0 °F 93% 29.94 in 10.0 mi East 4.6 mph - N/A   Clear
5:53 AM 64.0 °F - 62.1 °F 93% 29.94 in 10.0 mi ESE 3.5 mph - N/A   Clear
6:53 AM 62.1 °F - 61.0 °F 96% 29.95 in 8.0 mi East 5.8 mph - N/A   Clear
7:53 AM 66.0 °F - 64.0 °F 93% 29.95 in 6.0 mi East 3.5 mph - N/A   Clear
8:53 AM 71.1 °F - 66.9 °F 87% 29.95 in 5.0 mi East 9.2 mph - N/A   Clear
9:53 AM 78.1 °F - 68.0 °F 71% 29.94 in 10.0 mi SE 6.9 mph - N/A   Clear
10:53 AM 82.9 °F 86.5 °F 69.1 °F 63% 29.91 in 10.0 mi ESE 10.4 mph - N/A   Clear
11:53 AM 87.1 °F 92.0 °F 70.0 °F 57% 29.90 in 10.0 mi ESE 11.5 mph - N/A   Clear
12:53 PM 90.0 °F 93.6 °F 68.0 °F 48% 29.88 in 10.0 mi SE 11.5 mph - N/A   Clear
1:53 PM 91.0 °F 95.2 °F 68.0 °F 47% 29.87 in 10.0 mi ESE 17.3 mph 21.9 mph N/A   Clear
2:53 PM 91.9 °F 96.9 °F 69.1 °F 47% 29.86 in 10.0 mi SE 11.5 mph - N/A   Clear
3:53 PM 91.9 °F 97.4 °F 70.0 °F 48% 29.82 in 10.0 mi SE 11.5 mph - N/A   Scattered Clouds
4:53 PM 93.9 °F 95.6 °F 64.0 °F 37% 29.77 in 10.0 mi South 13.8 mph 21.9 mph N/A   Clear
5:53 PM 90.0 °F 94.5 °F 69.1 °F 50% 29.78 in 10.0 mi ESE 15.0 mph 25.3 mph N/A   Scattered Clouds
6:53 PM 86.0 °F 90.1 °F 69.1 °F 57% 29.81 in 10.0 mi East 17.3 mph - N/A   Mostly Cloudy
7:11 PM 72.0 °F - 60.1 °F 66% 29.92 in 10.0 mi NE 27.6 mph 38.0 mph N/A   Mostly Cloudy
7:53 PM 71.1 °F - 59.0 °F 66% 29.85 in 10.0 mi NNE 16.1 mph - N/A   Clear
8:13 PM 71.1 °F - 61.0 °F 70% 29.92 in 10.0 mi East 18.4 mph 23.0 mph N/A   Clear
8:53 PM 66.0 °F - 59.0 °F 78% 29.88 in 10.0 mi East 15.0 mph - N/A   Clear
9:53 PM 64.9 °F - 59.0 °F 81% 29.89 in 10.0 mi ESE 10.4 mph - N/A   Clear
10:53 PM 64.0 °F - 57.9 °F 80% 29.91 in 10.0 mi ESE 11.5 mph - N/A   Clear
11:53 PM 64.0 °F - 57.9 °F 80% 29.90 in 10.0 mi ESE 6.9 mph - N/A   Clear